Flag for U.S.A. Weather past 2 weeks in Palm Springs, California, U.S.A.

Now
81 °F

Clear.


Feels Like: 79 °F
Forecast: 63 / 89 °F
Wind: 16 mph from Northwest

Location: Palm Springs Regional Airport

Current Time: Mar 31, 2015 at 10:29:45 PM

Latest Report: Mar 31, 2015 at 9:53 PM


Visibility: 10 mi

Pressure: 29.80 "Hg

Humidity: 15%

Dew point: 29 °F

Location of Palm SpringsLocation

Historic Weather in Palm Springs — Graph

°F

Palm Springs temperature yesterday

Maximum temperature yesterday: 96 °F (at 2:53 PM)
Minimum temperature yesterday: 65 °F (at 5:53 AM)
Average temperature yesterday: 83 °F

Past Weeks' High & Low Weather Summary

 TemperatureHumidityPressure
High99 °F (Mar 28, 4:53 PM)63% (Mar 19, 6:53 AM)30.13 "Hg (Mar 19, 6:53 AM)
Low56 °F (Mar 23, 6:53 AM)5% (Mar 28, 3:53 PM)29.77 "Hg (Mar 31, 6:53 PM)
Average78 °F26%29.97 "Hg
* Reported Mar 16 8:53 PM — Mar 31 8:53 PM, Palm Springs, Weather by CustomWeather, © 2015

Note: Actual official high and low records may vary slightly from our data, if they occured in-between our weather recording intervals... More about our weather records

Advertising

Palm Springs weather history for previous 24 hours

 ConditionsComfort  
Time TempWeatherWind HumidityBarometerVisibility
8:53 PM
Tue, Mar 31
82 °FClear.14 mph17%29.79 "Hg10 mi
7:53 PM85 °FSunny.6 mph14%29.79 "Hg10 mi
6:53 PM89 °FSunny.15 mph9%29.77 "Hg10 mi
5:53 PM92 °FSunny.9 mph8%29.78 "Hg10 mi
4:53 PM94 °FSunny.3 mph6%29.77 "Hg10 mi
3:53 PM96 °FSunny.16 mph5%29.79 "Hg10 mi
2:53 PM93 °FScattered clouds.7 mph8%29.81 "Hg10 mi
1:53 PM91 °FSunny.3 mph9%29.85 "Hg10 mi
12:53 PM90 °FSunny.5 mph13%29.88 "Hg10 mi
11:53 AM87 °FScattered clouds.6 mph16%29.91 "Hg10 mi
10:53 AM83 °FSunny.6 mph21%29.93 "Hg10 mi
9:53 AM81 °FSunny.6 mph19%29.93 "Hg10 mi
8:53 AM77 °FSunny.12 mph22%29.91 "Hg10 mi
7:53 AM72 °FSunny.5 mph29%29.89 "Hg10 mi
6:53 AM66 °FClear.No wind43%29.88 "Hg10 mi
5:53 AM66 °FClear.No wind43%29.87 "Hg10 mi
4:53 AM69 °FClear.No wind33%29.87 "Hg10 mi
3:53 AM68 °FClear.No wind42%29.87 "Hg10 mi
2:53 AM71 °FClear.No wind35%29.88 "Hg10 mi
1:53 AM73 °FClear.No wind30%29.89 "Hg10 mi
12:53 AM76 °FClear.No wind25%29.90 "Hg10 mi
11:53 PM
Mon, Mar 30
77 °FClear.No wind23%29.90 "Hg10 mi
10:53 PM80 °FClear.5 mph20%29.90 "Hg10 mi
Weather by CustomWeather, © 2015

See weather overviewHow to use our weather pages